Regional Weather Roundup
Issued by NWS State College, PA

Home | Current Version | Previous Version | Text Only | Print | Product List | Glossary On
Versions: 1 2 3 4 5 6 7 8 9 10 11 12 13 14 15 16 17 18 19 20 21 22 23 24 25 26 27 28 29 30 31 32 33 34 35 36 37 38 39 40 41 42 43 44 45 46 47 48 49 50
000
ASUS41 KCTP 251610
RWRCTP

REGIONAL WEATHER ROUNDUP
NATIONAL WEATHER SERVICE STATE COLLEGE PA
1200 PM EDT THU AUG 25 2016

Note: "fair" indicates few or no clouds below 12,000 feet with no
significant weather and/or obstructions to visibility.

* = STATION THAT DOES NOT REPORT PRECIPITATION /E.G. RAIN...SNOW...ETC/
    THUNDER OR FOG.

PAZ002>004-007>009-013>016-020>023-029>032-251700-
WESTERN PENNSYLVANIA

CITY           SKY/WX    TMP DP  RH WIND       PRES   REMARKS
ERIE           MOSUNNY   81  73  76 W8        30.01F
MEADVILLE      MOSUNNY   79  70  74 W7        30.05F
FRANKLIN*      MOSUNNY   79  70  73 W7        30.07F
NEW CASTLE     CLOUDY    81  72  74 SW7       30.07F
BEAVER COUNTY  PTSUNNY   82  70  65 SW10      30.08S
BUTLER*        NOT AVBL
PITTSBURGH INT CLOUDY    79  68  69 SW7       30.08F
PITTSBURGH     PTSUNNY   81  69  67 W7        30.08F
INDIANA*       CLOUDY    79  73  83 W9        30.12S
LATROBE        PTSUNNY   79  73  83 SW12      30.11S
WASHINGTON CO* PTSUNNY   81  70  69 SW7       30.10F
$$

PAZ004>006-010>012-017>019-024>028-033>037-041-042-045-046-049>053-251700-
CENTRAL PENNSYLVANIA

CITY           SKY/WX    TMP DP  RH WIND       PRES   REMARKS
BRADFORD       CLOUDY    76  71  85 VRB6      30.08S
DUBOIS         PTSUNNY   79  69  71 W13       30.08F
CLEARFIELD     CLOUDY    81  71  71 W10       30.08S
JOHNSTOWN      CLOUDY    74  69  85 SW6       30.14S
ALTOONA        PTSUNNY   81  70  69 W7        30.11S
STATE COLLEGE  PTSUNNY   79  72  78 SW9       30.07F
WILLIAMSPORT   CLOUDY    79  67  66 E5        30.02F
SELINSGROVE    MOSUNNY   80  71  74 S8        30.06F
FT INDIANTOWN  PTSUNNY   75  67  75 SW6       30.08F
CAPITAL CITY   CLOUDY    80  67  64 NW3       30.07F
HARRISBURG     PTSUNNY   81  70  69 CALM      30.06F
YORK           CLOUDY    81  69  67 S7        30.07F
$$

PAZ038>040-043-044-047-048-054-055-060>062-067>071-251700-
EASTERN PENNSYLVANIA

CITY           SKY/WX    TMP DP  RH WIND       PRES   REMARKS
SCRANTON       CLOUDY    79  68  69 SW6       30.06F
MOUNT POCONO   PTSUNNY   74  65  73 S9        30.12F
ALLENTOWN      MOSUNNY   82  67  60 VRB5      30.07F
QUAKERTOWN*    SUNNY     82  68  61 CALM      30.09F
READING        CLOUDY    80  68  66 SW6       30.06F
LANCASTER      CLOUDY    79  71  76 SW8       30.08F
COATESVILLE    PTSUNNY   79  70  73 VRB3      30.11F
POTTSTOWN      SUNNY     81  69  67 S7        30.09F
BLUE BELL      MOSUNNY   81  70  69 SW9       30.08F
DOYLESTOWN     MOSUNNY   81  69  67 S8        30.08F
WILLOW GROVE   NOT AVBL
NORTH PHILA    MOSUNNY   83  67  58 SW12      30.10F
PHILADELPHIA   PTSUNNY   84  67  56 SW13      30.09F
$$




USA.gov is the U.S. government's official web portal to all federal, state and local government web resources and services.